Regional Weather Roundup
Issued by NWS

Home | Current Version | Previous Version | Text Only | Print | Product List | Glossary Off
Versions: 1 2 3 4 5 6 7 8 9 10 11 12 13 14 15 16 17 18 19 20 21 22 23 24 25 26 27 28 29 30 31 32 33 34 35 36 37 38 39 40 41 42 43 44 45 46 47 48 49 50

000
ASUS45 KPSR 302110
RWRAZ

ARIZONA HOURLY REGIONAL WEATHER ROUNDUP
NATIONAL WEATHER SERVICE PHOENIX AZ
200 PM MST SUN AUG 30 2015

NOTE: FAIR INDICATES FEW OR NO CLOUDS BELOW 12,000 FEET WITH NO
SIGNIFICANT WEATHER AND/OR OBSTRUCTIONS TO VISIBILITY.

AZZ001>003-036-302200-
NORTHWEST ARIZONA

CITY           SKY/WX    TMP DP  RH WIND       PRES   REMARKS
BULLHEAD CITY  SUNNY    108  48  13 S17G25    29.74F HX 104
KINGMAN        MOSUNNY   96  51  21 S23G32    29.97F
$$

AZZ004>008-015-016-018-302200-
NORTH CENTRAL ARIZONA

CITY           SKY/WX    TMP DP  RH WIND       PRES   REMARKS
GRAND CANYON   CLOUDY    69  57  65 NE8       30.25S THUNDER
WILLIAMS       PTSUNNY   79  50  36 W17G26    30.30F
PRESCOTT       PTSUNNY   87  56  34 S10G20    30.12F
FLAGSTAFF      CLOUDY    72  48  42 W9G21     30.28F
PAYSON         MOSUNNY   88  52  29 S10G21    30.15F
PAGE           CLOUDY    86  51  29 W3        30.03S
$$

AZZ009>014-017-302200-
NORTHEAST ARIZONA

CITY           SKY/WX    TMP DP  RH WIND       PRES   REMARKS
WINSLOW        CLOUDY    69  61  75 VRB3      30.14F
SAINT JOHNS    CLOUDY    80  48  32 SW14      30.19F
WINDOW ROCK    PTSUNNY   75  54  47 N17G24    30.24F
SHOW LOW       CLOUDY    75  48  38 E12       30.24F
$$

AZZ023-302200-
GREATER PHOENIX AREA

CITY           SKY/WX    TMP DP  RH WIND       PRES   REMARKS
PHOENIX        MOSUNNY  103  57  21 VRB3      29.79F HX 102
BUCKEYE        SUNNY    104  57  21 SE5       29.79F HX 103
GLENDALE       MOSUNNY  106  57  20 CALM      29.81F HX 105
DEER VALLEY    SUNNY    102  57  22 VRB6      29.82F HX 101
SCOTTSDALE     SUNNY    102  54  20 SE5       29.84F HX 100
MESA-FALCON    MOSUNNY  104  54  18 W6        29.83F HX 102
MESA-GATEWAY   MOSUNNY  100  55  22 CALM      29.86F
CHANDLER       MOSUNNY  102  55  21 W7        29.82F HX 101
$$

AZZ027-028-302200-
SOUTHWEST MARICOPA COUNTY AND PINAL COUNTY

CITY           SKY/WX    TMP DP  RH WIND       PRES   REMARKS
CASA GRANDE    SUNNY    104  57  21 CALM      29.83F HX 103
GILA BEND      FAIR     108  57  18 SW9G18    29.77F HX 107
$$

AZZ503-504-507>509-302200-
SOUTHEAST ARIZONA

CITY           SKY/WX    TMP DP  RH WIND       PRES   REMARKS
TUCSON         MOSUNNY   97  55  24 SW5       29.95F
DAVIS-MONTHAN  SUNNY     97  56  25 VRB5      29.94
RYAN FIELD     SUNNY     99  61  28 W8        29.93F
NOGALES        TSTM      73  62  68 SE31G54   30.09R
SIERRA VISTA   CLOUDY    82  51  33 NW9       30.13F
DOUGLAS        MOSUNNY   91  54  28 VRB3      30.06F
SAFFORD        SUNNY     95  54  25 SE9       29.97F
$$

AZZ020-021-025-026-031-302200-
SOUTHWEST ARIZONA

CITY           SKY/WX    TMP DP  RH WIND       PRES   REMARKS
YUMA           SUNNY    109  50  14 W8        29.74F HX 106
$$

CAZ031-033-041-043-047-048-061-302200-
SOUTHERN CALIFORNIA

CITY           SKY/WX    TMP DP  RH WIND       PRES   REMARKS
DOWNTOWN L.A.  SUNNY     85  66  53 VRB3      29.87F
L.A. AIRPORT   MOSUNNY   78  66  66 W13       29.89F
SAN DIEGO      MOSUNNY   80  65  59 W8        29.92S
BURBANK        SUNNY     89  65  44 S10       29.88F
ONTARIO        MOSUNNY   93  59  31 SW13G21   29.88F
RIVERSIDE      SUNNY     94  58  29 W8G20     29.87F
PALM SPRINGS   MOSUNNY  108  48  13 NW10G24   29.75F HX 104
EL CENTRO NAS  SUNNY    112  38   8 SW16G23   29.73F HX 105
IMPERIAL       SUNNY    109  43  10 VRB7      29.71F HX 104
BLYTHE         SUNNY    108  50  14 S7G17     29.73F HX 105
NEEDLES        SUNNY    110  44  11 S15G24    29.75F HX 105
$$

NVZ020-UTZ003-302200-
SOUTHERN NEVADA-UTAH

CITY           SKY/WX    TMP DP  RH WIND       PRES   REMARKS
LAS VEGAS      PTSUNNY  100  41  13 SW14G24   29.79F
SALT LAKE CITY PTSUNNY   85  46  25 N12       29.95S
$$

NMZ009-TXZ055-302200-
NEW MEXICO-WEST TEXAS

CITY           SKY/WX    TMP DP  RH WIND       PRES   REMARKS
ALBUQUERQUE    MOSUNNY   88  43  20 SW6       30.15F
EL PASO        MOSUNNY   92  49  22 E9        30.08F
$$


........................KEY........................
SKY/WX - SKY CONDITION/WEATHER
TMP    - TEMPERATURE IN FAHRENHEIT
DP     - DEW POINT IN FAHRENHEIT
RH     - RELATIVE HUMIDITY IN PERCENT
WIND   - DIRECTION AND SPEED IN MILES PER HOUR (MPH)
VRB    - VARIABLE WIND DIRECTION
PRES   - MEAN SEA LEVEL PRESSURE IN INCHES OF MERCURY
         F - FALLING PRESSURE   R - RISING PRESSURE
         S - STEADY PRESSURE
VSB    - VISIBILITY IN MILES
HX     - HEAT INDEX IN FAHRENHEIT
WCI    - WIND CHILL INDEX IN FAHRENHEIT
TC     - TEMPERATURE IN CELSIUS WHICH IS ALSO KNOWN AS
         TEMPERATURE IN CENTIGRADE
AFB    - AIR FORCE BASE
         LUKE AFB IS LUKE AIR FORCE BASE
         DAVIS-MONTHAN IS DAVIS-MONTHAN AIR FORCE BASE
NAS    - NAVAL AIR STATION
         EL CENTRO NAS IS EL CENTRO NAVAL AIR STATION
N/A    - NOT AVAILABLE



USA.gov is the U.S. government's official web portal to all federal, state and local government web resources and services.